K5KTX Weather Reports


time (UTC)temp
F
wind
direction
speed
knots
gust
knots
rain 1hr
in
rain 24hr
in
rain mn
in
humidity
%
barometer
mb
20260506134526 53 360 5.2 10.4 0.00 0.00 0.00 88 1013.8
20260506134010 53 13 4.3 10.4 0.00 0.00 0.00 87 1013.8
20260506133504 53 17 6.1 10.4 0.00 0.00 0.00 87 1013.7
20260506133014 53 352 4.3 13.9 0.00 0.00 0.00 87 1013.7
20260506132504 53 350 6.1 13.9 0.00 0.00 0.00 87 1013.7
20260506132007 53 21 5.2 9.6 0.00 0.00 0.00 87 1013.9
20260506131518 53 350 6.1 11.3 0.00 0.00 0.00 87 1013.8
20260506131006 53 350 5.2 11.3 0.00 0.00 0.00 87 1013.7
20260506130506 53 22 5.2 9.6 0.00 0.00 0.00 87 1013.9
20260506130023 53 348 7.0 9.6 0.00 0.00 0.00 87 1013.7
20260506125512 53 10 6.1 8.7 0.00 0.00 0.00 87 1013.6
20260506125011 53 9 4.3 8.7 0.00 0.00 0.00 87 1013.4
20260506124525 53 360 3.5 8.7 0.00 0.00 0.00 87 1013.4
20260506124007 53 346 5.2 11.3 0.00 0.00 0.00 86 1013.3
20260506123507 53 352 5.2 11.3 0.00 0.00 0.00 85 1013.4
20260506123027 53 352 6.1 12.2 0.00 0.00 0.00 85 1013.4
20260506122509 53 352 4.3 12.2 0.00 0.00 0.00 85 1013.1
20260506122007 53 352 6.1 9.6 0.00 0.00 0.00 84 1013.0
20260506121515 53 15 5.2 11.3 0.00 0.00 0.00 84 1013.0
20260506121004 53 352 5.2 11.3 0.00 0.00 0.00 83 1013.0
20260506120504 54 352 7.8 11.3 0.00 0.00 0.00 83 1012.8
20260506120041 54 12 7.8 13.0 0.00 0.00 0.00 83 1012.6
20260506115508 54 329 7.8 13.0 0.00 0.00 0.00 82 1012.2
20260506115009 54 22 6.1 10.4 0.00 0.00 0.00 82 1012.5
20260506114503 54 46 6.1 12.2 0.00 0.00 0.00 82 1012.5
20260506114003 54 9 7.0 12.2 0.00 0.00 0.00 82 1012.3
20260506113506 54 351 7.8 11.3 0.00 0.00 0.00 81 1012.1
20260506113009 55 12 5.2 11.3 0.00 0.00 0.00 81 1012.2
20260506112503 55 23 7.0 11.3 0.00 0.00 0.00 80 1012.2
20260506112003 55 12 6.1 10.4 0.00 0.00 0.00 79 1011.9
20260506111511 55 303 3.5 8.7 0.00 0.00 0.00 79 1011.7
20260506111003 56 348 4.3 8.7 0.00 0.00 0.00 79 1011.8
20260506110503 56 9 4.3 8.7 0.00 0.00 0.00 79 1011.5
20260506110012 56 333 3.5 8.7 0.00 0.00 0.00 78 1011.5
20260506105505 56 360 5.2 8.7 0.00 0.00 0.00 78 1011.3
20260506105002 56 9 3.5 8.7 0.00 0.00 0.00 78 1011.4
20260506104503 56 9 4.3 8.7 0.00 0.00 0.00 78 1011.2
20260506104006 56 11 4.3 8.7 0.00 0.00 0.00 78 1011.1
20260506103502 56 9 4.3 7.0 0.00 0.00 0.00 78 1011.0
20260506103018 56 352 2.6 6.1 0.00 0.00 0.00 79 1011.0
20260506102502 57 352 2.6 6.1 0.00 0.00 0.00 79 1010.8
20260506102003 56 360 3.5 6.1 0.00 0.00 0.00 78 1010.8
20260506101513 57 39 3.5 7.8 0.00 0.00 0.00 79 1010.9
20260506101002 57 10 2.6 7.8 0.00 0.00 0.00 78 1010.9
20260506100502 57 5 4.3 7.8 0.00 0.00 0.00 78 1010.8
20260506100015 57 360 3.5 6.1 0.00 0.00 0.00 79 1010.8
20260506095503 57 13 3.5 8.7 0.00 0.00 0.00 79 1010.7
20260506095004 57 352 3.5 8.7 0.00 0.00 0.00 78 1010.8
20260506094515 57 352 3.5 7.8 0.00 0.00 0.00 79 1010.7
20260506094004 57 349 4.3 7.8 0.00 0.00 0.00 78 1010.7
20260506093503 57 15 4.3 7.0 0.00 0.00 0.00 79 1010.6
20260506093016 57 18 2.6 6.1 0.00 0.00 0.00 79 1010.5
20260506092503 57 338 3.5 6.1 0.00 0.00 0.00 79 1010.5
20260506092003 57 350 3.5 7.8 0.00 0.00 0.00 79 1010.6
20260506091510 57 17 2.6 7.8 0.00 0.00 0.00 79 1010.4
20260506091002 57 360 3.5 7.0 0.00 0.00 0.00 79 1010.2
20260506090502 57 342 1.7 3.5 0.00 0.00 0.00 80 1010.2
20260506090016 57 40 0.9 6.1 0.00 0.00 0.00 80 1010.1
20260506085505 57 26 2.6 6.1 0.00 0.00 0.00 79 1010.1
20260506085005 57 13 2.6 4.3 0.00 0.00 0.00 80 1010.2
20260506084536 57 352 0.9 2.6 0.00 0.00 0.00 80 1010.1
20260506084006 57 50 1.7 5.2 0.00 0.00 0.00 80 1010.0
20260506083503 57 351 2.6 6.1 0.00 0.00 0.00 79 1010.1
20260506083017 57 346 2.6 6.1 0.00 0.00 0.00 80 1010.1
20260506082504 57 351 2.6 7.0 0.00 0.00 0.00 80 1010.2
20260506082003 57 352 1.7 7.0 0.00 0.00 0.00 79 1010.2
20260506081506 57 22 1.7 5.2 0.00 0.00 0.00 79 1010.2
20260506081005 58 360 2.6 7.8 0.00 0.00 0.00 80 1010.4
20260506080504 57 13 5.2 7.8 0.00 0.00 0.00 79 1010.3
20260506073506 58 14 5.2 8.7 0.00 0.00 0.00 79 1010.2
20260506073018 58 22 4.3 8.7 0.00 0.00 0.00 79 1010.0
20260506072506 59 351 2.6 7.8 0.00 0.00 0.00 80 1010.0
20260506072008 59 30 5.2 8.7 0.00 0.00 0.00 79 1010.0
20260506071520 59 9 5.2 8.7 0.00 0.00 0.00 79 1010.0
20260506071005 59 9 4.3 7.8 0.00 0.00 0.00 79 1010.2
20260506070505 59 16 3.5 7.8 0.00 0.00 0.00 79 1009.8
20260506062506 60 11 5.2 7.8 0.00 0.00 0.00 79 1009.9
20260506062006 60 9 4.3 7.8 0.00 0.00 0.00 79 1009.8
20260506061522 60 327 3.5 7.0 0.00 0.00 0.00 79 1009.9
20260506061006 61 360 3.5 7.0 0.00 0.00 0.00 80 1009.9
20260506060505 61 348 2.6 6.1 0.00 0.00 0.00 80 1009.9
20260506051010 62 5 6.1 10.4 0.00 0.00 0.00 80 1009.4
20260506050506 63 352 4.3 10.4 0.00 0.00 0.00 79 1009.6
20260506045010 63 13 4.3 8.7 0.00 0.00 0.00 79 1009.4
20260506044523 64 352 5.2 8.7 0.00 0.00 0.00 79 1009.3
20260506044007 64 349 4.3 9.6 0.00 0.00 0.00 79 1009.3
20260506043509 64 42 7.0 9.6 0.00 0.00 0.00 78 1009.2
20260506043015 64 9 7.0 9.6 0.00 0.00 0.00 78 1009.2
20260506042504 65 351 6.1 9.6 0.00 0.00 0.00 78 1009.0
20260506042006 65 9 6.1 10.4 0.00 0.00 0.00 77 1009.0
20260506041522 66 12 6.1 10.4 0.00 0.00 0.00 77 1008.9
20260506041003 67 33 7.0 10.4 0.00 0.00 0.00 77 1008.8
20260506040506 67 17 7.8 12.2 0.00 0.00 0.00 76 1008.7
20260506040031 68 346 7.8 12.2 0.00 0.00 0.00 77 1008.7
20260506035508 69 9 6.1 9.6 0.00 0.00 0.00 76 1008.6
20260506035006 70 347 6.1 11.3 0.00 0.00 0.00 76 1008.5
20260506034526 70 18 7.0 11.3 0.00 0.00 0.00 76 1008.4
20260506034008 71 360 6.1 11.3 0.00 0.00 0.00 76 1008.4
20260506033506 72 344 6.1 11.3 0.00 0.00 0.00 76 1008.3
20260506033026 73 360 6.1 11.3 0.00 0.00 0.00 76 1008.3
20260506032507 74 351 3.5 7.8 0.00 0.00 0.00 77 1008.3
20260506032003 74 319 3.5 11.3 0.00 0.00 0.00 76 1008.0
20260506031518 74 344 5.2 11.3 0.00 0.00 0.00 76 1007.8
20260506031004 75 349 3.5 7.0 0.00 0.00 0.00 78 1007.6
20260506030504 75 360 0.9 1.7 0.00 0.00 0.00 85 1007.4
20260506030021 75 343 0.0 0.0 0.00 0.00 0.00 84 1007.3
20260506025506 76 343 0.0 0.0 0.00 0.00 0.00 84 1007.2
20260506025010 76 319 0.0 0.0 0.00 0.00 0.00 84 1007.0
20260506024526 76 224 0.0 0.0 0.00 0.00 0.00 84 1006.7
20260506024008 76 224 0.0 0.0 0.00 0.00 0.00 83 1006.9
20260506023509 76 224 0.0 0.0 0.00 0.00 0.00 83 1006.8
20260506023048 76 224 0.0 0.0 0.00 0.00 0.00 82 1006.4
20260506022509 76 224 0.0 0.0 0.00 0.00 0.00 82 1006.4
20260506022012 76 224 0.0 0.0 0.00 0.00 0.00 82 1006.6
20260506021541 76 224 0.0 0.0 0.00 0.00 0.00 82 1006.7
20260506021011 76 224 0.0 0.0 0.00 0.00 0.00 81 1006.6
20260506020503 77 235 0.0 0.0 0.00 0.00 0.00 81 1006.5
20260506020026 77 235 0.0 0.9 0.00 0.00 0.00 81 1006.3
20260506015506 77 36 0.0 1.7 0.00 0.00 0.00 81 1006.4
20260506015007 77 36 0.0 3.5 0.00 0.00 0.00 81 1006.4
20260506014524 77 258 1.7 3.5 0.00 0.00 0.00 1006.5
20260506014008 77 242 1.7 3.5 0.00 0.00 0.00 79 1006.1
20260506013507 77 238 1.7 2.6 0.00 0.00 0.00 79 1005.9
20260506013033 77 211 0.9 5.2 0.00 0.00 0.00 79 1005.4
20260506012504 77 215 0.9 5.2 0.00 0.00 0.00 79 1005.3
20260506012004 77 188 0.9 3.5 0.00 0.00 0.00 78 1005.5
20260506011512 78 219 0.9 3.5 0.00 0.00 0.00 78 1005.8
20260506011003 78 215 0.9 4.3 0.00 0.00 0.00 78 1005.9
20260506010504 78 215 1.7 4.3 0.00 0.00 0.00 77 1006.0
20260506010019 78 234 1.7 4.3 0.00 0.00 0.00 77 1006.1
20260506005504 78 204 2.6 4.3 0.00 0.00 0.00 77 1006.0
20260506005004 78 218 2.6 4.3 0.00 0.00 0.00 1005.9
20260506004526 78 193 2.6 5.2 0.00 0.00 0.00 76 1005.6
20260506004013 79 225 2.6 5.2 0.00 0.00 0.00 76 1005.4
20260506003515 79 198 3.5 6.1 0.00 0.00 0.00 75 1005.6
20260506003006 79 192 3.5 7.0 0.00 0.00 0.00 75 1005.4
20260506002503 79 214 2.6 7.0 0.00 0.00 0.00 75 1005.6
20260506002002 79 196 2.6 6.1 0.00 0.00 0.00 75 1005.5
20260506001507 79 207 3.5 6.1 0.00 0.00 0.00 75 1005.5
20260506001003 80 190 1.7 7.0 0.00 0.00 0.00 74 1005.3
20260506000504 80 223 3.5 7.0 0.00 0.00 0.00 74 1005.2
20260506000013 80 208 3.5 7.0 0.00 0.00 0.00 74 1005.3
20260505235508 80 210 4.3 7.0 0.00 0.00 0.00 73 1005.4
20260505235006 80 215 2.6 7.0 0.00 0.00 0.00 73 1005.3
20260505234519 81 209 1.7 9.6 0.00 0.00 0.00 73 1005.2
20260505234006 81 215 3.5 9.6 0.00 0.00 0.00 73 1005.3
20260505233510 81 221 3.5 7.8 0.00 0.00 0.00 73 1005.3
20260505233022 81 198 4.3 7.0 0.00 0.00 0.00 73 1005.4
20260505232508 81 213 3.5 7.8 0.00 0.00 0.00 72 1005.4
20260505232002 81 228 3.5 10.4 0.00 0.00 0.00 71 1005.3
20260505231507 82 200 6.1 10.4 0.00 0.00 0.00 71 1005.2
20260505231008 82 238 5.2 8.7 0.00 0.00 0.00 71 1005.2
20260505230509 82 210 4.3 8.7 0.00 0.00 0.00 71 1005.0
20260505230015 82 209 6.1 8.7 0.00 0.00 0.00 71 1005.0
20260505225504 82 209 3.5 8.7 0.00 0.00 0.00 72 1004.9
20260505225004 82 200 5.2 8.7 0.00 0.00 0.00 71 1005.0
20260505224518 82 213 4.3 7.8 0.00 0.00 0.00 71 1005.0
20260505224009 82 213 4.3 10.4 0.00 0.00 0.00 71 1005.1
20260505223514 82 206 5.2 10.4 0.00 0.00 0.00 70 1005.2
20260505223020 82 201 6.1 10.4 0.00 0.00 0.00 70 1005.0
20260505222507 82 190 5.2 10.4 0.00 0.00 0.00 71 1005.0
20260505222012 82 241 7.0 10.4 0.00 0.00 0.00 71 1005.0
20260505221525 82 225 6.1 13.0 0.00 0.00 0.00 71 1005.1
20260505221009 83 230 6.1 13.0 0.00 0.00 0.00 70 1005.2
20260505220503 83 232 7.0 13.0 0.00 0.00 0.00 70 1005.2
20260505220007 83 206 4.3 9.6 0.00 0.00 0.00 71 1005.1
20260505215505 82 150 6.1 10.4 0.00 0.00 0.00 70 1005.2
20260505215003 83 250 3.5 10.4 0.00 0.00 0.00 71 1005.3
20260505214512 83 227 7.0 13.0 0.00 0.00 0.00 70 1005.3
20260505214002 83 213 7.0 13.0 0.00 0.00 0.00 69 1005.3
20260505213504 83 220 7.0 13.0 0.00 0.00 0.00 69 1005.2
20260505213028 83 211 7.0 13.0 0.00 0.00 0.00 69 1005.1
20260505212510 83 236 6.1 12.2 0.00 0.00 0.00 68 1005.1
20260505212011 83 223 7.8 11.3 0.00 0.00 0.00 69 1005.2
20260505211526 83 186 6.1 11.3 0.00 0.00 0.00 69 1005.3
20260505211006 83 212 7.0 13.0 0.00 0.00 0.00 69 1005.3
20260505210509 83 205 8.7 13.0 0.00 0.00 0.00 69 1005.2
20260505210028 83 218 7.8 11.3 0.00 0.00 0.00 69 1005.2
20260505205511 83 211 7.0 10.4 0.00 0.00 0.00 71 1005.3
20260505205008 83 189 6.1 12.2 0.00 0.00 0.00 70 1005.4
20260505204512 82 193 7.0 9.6 0.00 0.00 0.00 70 1005.4
20260505204004 83 213 5.2 11.3 0.00 0.00 0.00 72 1005.5
20260505203503 83 227 7.0 13.0 0.00 0.00 0.00 71 1005.6
20260505203027 82 205 8.7 13.9 0.00 0.00 0.00 70 1005.6
20260505202503 82 239 7.0 13.9 0.00 0.00 0.00 70 1005.6
20260505202006 82 200 7.0 13.9 0.00 0.00 0.00 69 1005.6
20260505201530 82 237 7.0 13.0 0.00 0.00 0.00 70 1005.6
20260505201006 82 242 7.8 13.0 0.00 0.00 0.00 70 1005.7
20260505200508 82 241 8.7 15.6 0.00 0.00 0.00 71 1005.8
20260505200023 82 213 8.7 15.6 0.00 0.00 0.00 71 1005.9
20260505195510 82 237 8.7 15.6 0.00 0.00 0.00 73 1005.8
20260505195011 81 200 8.7 13.9 0.00 0.00 0.00 73 1005.6
20260505194526 81 202 8.7 17.4 0.00 0.00 0.00 72 1005.7
20260505194010 81 237 10.4 17.4 0.00 0.00 0.00 71 1005.7
20260505193503 80 212 7.8 13.9 0.00 0.00 0.00 71 1005.8
20260505193033 80 203 9.6 13.0 0.00 0.00 0.00 73 1005.9
20260505192512 80 234 8.7 15.6 0.00 0.00 0.00 72 1005.9
20260505192006 80 225 7.8 15.6 0.00 0.00 0.00 72 1006.0
20260505191521 80 199 8.7 15.6 0.00 0.00 0.00 72 1006.0
20260505191007 80 219 7.8 12.2 0.00 0.00 0.00 73 1006.0
20260505190510 80 225 6.1 13.0 0.00 0.00 0.00 73 1006.0
20260505190025 79 238 6.1 13.9 0.00 0.00 0.00 74 1005.9
20260505185512 80 217 7.8 17.4 0.00 0.00 0.00 72 1005.9
20260505185012 80 198 10.4 15.6 0.00 0.00 0.00 71 1006.0
20260505184534 80 197 8.7 13.9 0.00 0.00 0.00 72 1006.1
20260505184007 80 238 9.6 15.6 0.00 0.00 0.00 71 1006.0
20260505183512 80 198 9.6 16.5 0.00 0.00 0.00 71 1006.1
20260505183029 80 194 10.4 16.5 0.00 0.00 0.00 71 1006.0
20260505182507 80 215 9.6 16.5 0.00 0.00 0.00 71 1006.0
20260505182007 80 234 9.6 17.4 0.00 0.00 0.00 73 1006.0
20260505181517 80 233 11.3 17.4 0.00 0.00 0.00 72 1006.2
20260505181004 80 227 10.4 17.4 0.00 0.00 0.00 71 1006.1
20260505180511 80 230 10.4 15.6 0.00 0.00 0.00 72 1006.2
20260505180022 80 244 9.6 13.0 0.00 0.00 0.00 72 1006.2
20260505175507 79 224 8.7 16.5 0.00 0.00 0.00 72 1006.3
20260505175007 79 217 9.6 16.5 0.00 0.00 0.00 72 1006.4
20260505174538 79 213 7.8 16.5 0.00 0.00 0.00 73 1006.4
20260505174010 79 203 8.7 16.5 0.00 0.00 0.00 73 1006.5
20260505173507 79 188 9.6 13.9 0.00 0.00 0.00 72 1006.6
20260505173029 79 234 5.2 15.6 0.00 0.00 0.00 73 1006.6
20260505172509 78 207 8.7 15.6 0.00 0.00 0.00 74 1006.7
20260505172012 78 237 10.4 16.5 0.00 0.00 0.00 74 1006.8
20260505171528 78 194 7.8 16.5 0.00 0.00 0.00 74 1006.8
20260505171004 77 223 10.4 16.5 0.00 0.00 0.00 75 1006.8
20260505170503 77 209 7.8 16.5 0.00 0.00 0.00 74 1006.8
20260505170021 78 221 9.6 16.5 0.00 0.00 0.00 74 1006.6
20260505165506 78 188 10.4 15.6 0.00 0.00 0.00 73 1006.6
20260505165008 78 204 9.6 15.6 0.00 0.00 0.00 75 1006.5
20260505164524 77 201 9.6 15.6 0.00 0.00 0.00 74 1006.2
20260505164008 77 223 10.4 17.4 0.00 0.00 0.00 74 1006.2
20260505163510 77 196 8.7 17.4 0.00 0.00 0.00 76 1006.4
20260505163033 77 242 8.7 15.6 0.00 0.00 0.00 76 1006.4
20260505162506 76 212 9.6 16.5 0.00 0.00 0.00 76 1006.3
20260505162014 76 218 8.7 16.5 0.00 0.00 0.00 77 1006.2
20260505161530 76 242 7.8 18.2 0.00 0.00 0.00 78 1006.3
20260505161005 75 246 7.8 18.2 0.00 0.00 0.00 78 1006.4
20260505160504 75 207 7.0 15.6 0.00 0.00 0.00 78 1006.4
20260505153028 74 234 8.7 17.4 0.00 0.00 0.00 79 1006.5
20260505152504 74 207 8.7 17.4 0.00 0.00 0.00 80 1006.4
20260505152005 74 236 8.7 14.8 0.00 0.00 0.00 80 1006.5
20260505151517 74 207 8.7 13.9 0.00 0.00 0.00 80 1006.4
20260505151003 74 213 8.7 14.8 0.00 0.00 0.00 80 1006.3
20260505150509 74 180 9.6 14.8 0.00 0.00 0.00 80 1006.2
20260505140505 71 198 7.0 13.9 0.00 0.00 0.00 84 1006.4